STARLINK-36438, 67625

Orbit data source: Space-Track

STARLINK-36438, 67625 is a payload satellite owned by SpaceX/Seattle (US) in LEO that was launched on Fri, 30 Jan 2026 UTC via an FALCON 9 launch vehicle from the Air Force Eastern Test Range (AFETR). Payload-class satellites include a variety of spacecraft equipped with specific instruments for various scientific and technological missions. These include communications satellites like Starlink; space stations such as the ISS; scientific satellites like the Hubble; Earth observation satellites from companies like Planet Labs, Umbra, and HawkEye 360; GPS; miniature CubeSats for education and research; and military/defense satellites.

Loading next visibility...
Identifier
67625, 2026-020J
Orbit
LEO
Country
Flag of USUS
Related business
Manufacturer
SpaceX/Seattle
Mission
Operational spacecraft
Bus & Motor
STARLINK V2MO, Unknown motor
Mass
575 kg wet, ~530 kg dry
Launch date (UTC)
2026-01-30 (1 week ago)
Launch vehicle
FALCON 9
Launch site
Air Force Eastern Test Range (AFETR)
Object type
Payload
Rocket body
Debris
Shape & HBR
Unknown
Radar Cross Section
RCS unknown

Expand to show TLE details & history
Last TLE update: 9 hours ago

TLE from 9 hours ago
0 STARLINK-36438
1 67625U 26020J   26037.58335648 -.01953998  10267-2 -59422-2 0  9994
2 67625  43.0002 331.5385 0001859 259.9151  82.6509 15.91256634  2396
Epoch: 2026-02-06T14:00Z
TLE epoch observation values (Epoch: 2026-02-06T14:00:01.999Z)
Latitude
-11.90233°
Longitude
-28.17709°
Altitude
300.673 km
Speed
7.729 km/s
True Right ascension
21h 14m 12s
True Declination
-11° 49' 42"
Sunlit
Object was in daylight at epoch
Visualization orbit readout
Latitude
Unknown
Longitude
Unknown
Altitude
Unknown
Speed
Unknown
Apparent Right ascension
Unknown
Apparent Declination
Unknown
Sunlit
N/A
Visualization observer readout
Local Sidereal Time
00:46:32
Azimuth
Unknown
Elevation
Unknown
Doppler factor
Unknown
Orbital elements
Apogee altitude
302.006 km
Perigee altitude
299.522 km
Semi-major axis
6,678.901 km
Eccentricity
0.00019
Inclination
43.0002°
RAAN
331.5385°
Arg. of periapsis
259.9151°
True anomaly
82.67203°
Mean anomaly
82.6509°
Eccentric anomaly
82.66146°
Mean motion
3.97636 °/min
Orbital period
90.54 mins
BSTAR
-0.0059422
Loading maneuver chart data...
Computing Atmospheric mass density...
Loading historical data...
Loading historical data...
Loading historical data...
Loading historical data...
Loading historical data...
Loading historical data...
Loading historical data...

Documentation

Showing up to 5 results
|